FW3936 Weather Reports


Display with metric or nautical units.
time (UTC)temp
F
wind
direction
speed
MPH
gust
MPH
rain 1hr
in
rain 24hr
in
rain mn
in
humidity
%
barometer
mb
20260505024524 72 134 1.0 3.0 0.00 0.00 0.00 71 1010.3
20260505023024 72 134 1.0 5.0 0.00 0.00 0.00 70 1010.2
20260505021522 73 134 1.0 5.0 0.00 0.00 0.00 70 1010.3
20260505020034 73 134 2.0 6.0 0.00 0.00 0.00 69 1010.1
20260505014521 74 134 0.0 6.0 0.00 0.00 0.00 68 1010.0
20260505013024 74 135 2.0 6.0 0.00 0.00 0.00 67 1009.8
20260505011521 75 135 3.0 8.0 0.00 0.00 0.00 66 1009.8
20260505010020 75 141 1.0 7.0 0.00 0.00 0.00 65 1009.7
20260505004521 76 140 1.0 10.0 0.00 0.00 0.00 64 1009.7
20260505003019 76 130 4.0 9.0 0.00 0.00 0.00 63 1009.5
20260505001518 77 138 1.0 10.0 0.00 0.00 0.00 63 1009.6
20260505000025 77 136 4.0 9.0 0.00 0.00 0.00 62 1009.7
20260504234516 77 133 5.0 11.0 0.00 0.00 0.00 61 1009.8
20260504233012 77 134 3.0 10.0 0.00 0.00 0.00 61 1010.2
20260504231510 78 136 1.0 10.0 0.00 0.00 0.00 60 1010.3
20260504230008 78 142 1.0 9.0 0.00 0.00 0.00 61 1010.4
20260504224504 78 145 2.0 9.0 0.00 0.00 0.00 59 1010.6
20260504223004 78 146 3.0 7.0 0.00 0.00 0.00 60 1010.9
20260504221502 78 148 3.0 10.0 0.00 0.00 0.00 58 1010.9
20260504220001 78 146 3.0 10.0 0.00 0.00 0.00 58 1011.1
20260504214601 78 145 2.0 8.0 0.00 0.00 0.00 60 1010.9
20260504213111 78 142 4.0 9.0 0.00 0.00 0.00 60 1011.1
20260504211556 78 138 2.0 11.0 0.00 0.00 0.00 59 1011.3
20260504210053 78 146 1.0 6.0 0.00 0.00 0.00 59 1011.7
20260504204559 78 144 2.0 8.0 0.00 0.00 0.00 59 1011.9
20260504203048 77 144 2.0 9.0 0.00 0.00 0.00 63 1012.3
20260504201545 78 152 2.0 6.0 0.00 0.00 0.00 59 1012.4
20260504200044 78 140 2.0 9.0 0.00 0.00 0.00 60 1012.5
20260504194543 79 134 1.0 11.0 0.00 0.00 0.00 61 1012.6
20260504193054 79 131 6.0 10.0 0.00 0.00 0.00 57 1012.9
20260504191539 80 143 3.0 12.0 0.00 0.00 0.00 56 1013.0
20260504190041 80 171 5.0 11.0 0.00 0.00 0.00 56 1013.1
20260504184535 79 142 2.0 9.0 0.00 0.00 0.00 58 1013.2
20260504183034 78 145 2.0 4.0 0.00 0.00 0.00 58 1013.6
20260504181531 79 108 3.0 8.0 0.00 0.00 0.00 57 1013.9
20260504180027 79 143 2.0 11.0 0.00 0.00 0.00 57 1013.9
20260504174522 78 152 2.0 5.0 0.00 0.00 0.00 61 1013.9
20260504173021 77 130 5.0 12.0 0.00 0.00 0.00 59 1014.3
20260504171515 75 150 4.0 10.0 0.00 0.00 0.00 61 1014.5
20260504081506 61 126 1.0 5.0 0.00 0.00 0.00 72 1015.8
20260504044539 63 130 2.0 6.0 0.00 0.00 0.00 66 1017.9
20260504043044 64 128 3.0 6.0 0.00 0.00 0.00 65 1018.0
20260504041537 64 117 2.0 7.0 0.00 0.00 0.00 64 1017.9
20260504040037 64 126 2.0 5.0 0.00 0.00 0.00 63 1018.2
20260504034539 64 123 2.0 8.0 0.00 0.00 0.00 62 1018.1
20260504033040 64 124 1.0 7.0 0.00 0.00 0.00 62 1018.0
20260504031535 64 128 2.0 5.0 0.00 0.00 0.00 59 1017.9
20260504030039 64 132 1.0 4.0 0.00 0.00 0.00 56 1017.9